Location: Ripley
(48.3812°N, 115.4473°W)
Time: 02:45:33
(UTC+00:00)

RS-15 - Pass Details

Date: 04 July 2022
Orbit: 1881 x 2163 km, 64.8° (Epoch: 10 August)

Event Time Altitude Azimuth Distance (km) Brightness Sun altitude
Rises 08:39:29 0° 321° (NW) 5,699 11.0 -17.8°
Reaches altitude 10° 08:43:36 10° 311° (NW) 4,683 10.4 -17.6°
Maximum altitude 08:53:19 29° 258° (WSW) 3,310 9.0 -17.2°
Enters shadow 08:59:38 19° 217° (SW) 3,893 9.0 -16.9°
